BREEZE-KM DEB, 41720

Orbit data source: Space-Track

BREEZE-KM DEB, 41720 is space debris in LEO originally from a launch on Tue, 31 Mar 2015 UTC launched from the Plesetsk Missile And Space Complex (PKMTR). Debris objects in space refer to the collection of defunct objects orbiting the Earth. Examples of debris include non-operational satellites, rocket bodies, and fragments generated from explosions, collisions, or faulty payload assembly.

Loading next visibility...
Identifier
41720, 2015-020H
Orbit
LEO
Country
Flag of CISCIS
Related business
Manufacturer
Khrunichev
Mission
Spacecraft
Bus & Motor
Unknown
Mass
Unknown
Launch date (UTC)
2015-03-31 (11 years ago)
Launch vehicle
Unknown
Launch site
Plesetsk Missile And Space Complex (PKMTR)
Object type
Payload
Rocket body
Debris
Shape & HBR
Unknown shape, 0.1 m
Radar Cross Section
Medium (>0.1 m² and <1 m²)

Expand to show TLE details & history
Last TLE update: 1 day ago

TLE from 1 day ago
0 BREEZE-KM DEB
1 41720U 15020H   26236.33791290  .00000026  00000-0  43043-4 0  9991
2 41720  82.4858 107.3264 0230672  77.3459 285.3332 12.91006673527521
Epoch: 2026-08-24T08:06Z
TLE epoch observation values (Epoch: 2026-08-24T08:06:35.674Z)
Latitude
0.00004°
Longitude
13.05671°
Altitude
1,257.306 km
Speed
7.247 km/s
True Right ascension
07h 09m 18s
True Declination
0° 00' 00"
Sunlit
Object was in daylight at epoch
Visualization orbit readout
Latitude
Unknown
Longitude
Unknown
Altitude
Unknown
Speed
Unknown
Apparent Right ascension
Unknown
Apparent Declination
Unknown
Sunlit
N/A
Visualization observer readout
Local Sidereal Time
09:47:21
Azimuth
Unknown
Elevation
Unknown
Doppler factor
Unknown
Orbital elements
Apogee altitude
1,471.806 km
Perigee altitude
1,117.819 km
Semi-major axis
7,672.95 km
Eccentricity
0.02307
Inclination
82.4858°
RAAN
107.3264°
Arg. of periapsis
77.3459°
True anomaly
282.76526°
Mean anomaly
285.3332°
Eccentric anomaly
284.05109°
Mean motion
3.22924 °/min
Orbital period
111.48 mins
BSTAR
0.000043043
Loading maneuver chart data...
Computing Atmospheric mass density...
Loading historical data...
Loading historical data...
Loading historical data...
Loading historical data...
Loading historical data...
Loading historical data...
Loading historical data...

Documentation

Showing up to 5 results
|